Voltar ao catálogo

USA 385

AtivoMilitarVLEO
NORAD 60168·PAYLOAD·🇺🇸 United States

Lançado Jun 29, 2024 de Vandenberg Space Force Base

Loading…

Próximas Passagens (próximas 24 horas)

TLE

ObsoletoSource: Mike McCants

Época: Aug 25, 2026, 00:47 UTC

1 60168U 24121L   26237.03290499 0.00000000  00000-0  00000-0 0    00
2 60168  70.0214 214.0863 0004000 109.5823 250.4176 14.96713226    09

Acompanhe USA 385 em tempo real com AllMySat

Download on the App Store